Richmond, VA

8:21 AM EST on December 13, 2019 (GMT -0500)
Richmond International

Weather History for KRIC - October, 2019

Change the Weather History Date:

Tuesday, October 15, 2019

  Actual Average Record
Temperature  
Mean Temperature 62 °F 60 °F  
Max Temperature 75 °F 71 °F 90 °F (1985)
Min Temperature 50 °F 48 °F 31 °F (1934)
Degree Days  
Heating Degree Days 2 6  
Month to date heating degree days 69  
Since 1 July heating degree days 98  
Cooling Degree Days 0 1  
Month to date cooling degree days 28  
Year to date cooling degree days 1532  
Growing Degree Days 12 (Base 50)    
Moisture  
Dew Point 48 °F    
Average Humidity 65    
Maximum Humidity 93    
Minimum Humidity 32    
Precipitation  
Precipitation 0.00 in 0.09 in 1.15 in (1954)
Month to date precipitation 1.45  
Year to date precipitation 35.57  
Snow  
Snow - 0.00 in 0.00 in (2002)
Month to date snowfall 0.0  
Since 1 July snowfall 0.0  
Snow Depth -    
Sea Level Pressure  
Sea Level Pressure 30.11 in    
Wind  
Wind Speed 5 mph ()    
Max Wind Speed 10 mph    
Max Gust Speed -    
Visibility 10.0 miles    
Events      
T = Trace of Precipitation, MM = Missing Value Source: Averaged Metar Reports

Daily Weather History Graph

Daily Weather History Graph

Search for Another Location

Airport or City:

Astronomy

Oct. 15, 2019 Rise Set
Actual Time 7:17 AM EDT 6:32 PM EDT
Civil Twilight 6:50 AM EDT 6:58 PM EDT
Nautical Twilight 6:20 AM EDT 7:29 PM EDT
Astronomical Twilight 5:50 AM EDT 7:59 PM EDT
Moon 7:52 PM EDT (10/15) 8:44 AM EDT (10/15)
Length of Visible Light 12h 07m
Length of Day
11h 15m
Full, 97% of the Moon is Illuminated
Oct 15
Full
Oct 21
Last Quarter
Oct 27
New
Nov 4
First Quarter
Nov 12
Full

Hourly Weather History & Observations

Time (EDT) Temp. Dew Point Humidity Pressure Visibility Wind Dir Wind Speed Gust Speed Precip Events Conditions
12:54 AM 51.1 °F 48.0 °F 89% 30.09 in 10.0 mi WNW 3.5 mph - N/A   Clear
1:54 AM 53.1 °F 46.9 °F 80% 30.11 in 10.0 mi WNW 4.6 mph - N/A   Clear
2:54 AM 51.1 °F 46.0 °F 83% 30.12 in 10.0 mi NNW 6.9 mph - N/A   Clear
3:54 AM 52.0 °F 46.0 °F 80% 30.11 in 10.0 mi North 5.8 mph - N/A   Clear
4:54 AM 50.0 °F 45.0 °F 83% 30.12 in 10.0 mi North 5.8 mph - N/A   Clear
5:54 AM 51.1 °F 45.0 °F 80% 30.14 in 10.0 mi NNE 3.5 mph - N/A   Clear
6:54 AM 50.0 °F 46.0 °F 86% 30.15 in 10.0 mi North 3.5 mph - N/A   Clear
7:54 AM 51.1 °F 46.9 °F 86% 30.17 in 10.0 mi Calm Calm - N/A   Clear
8:54 AM 57.9 °F 52.0 °F 81% 30.18 in 10.0 mi NE 3.5 mph - N/A   Partly Cloudy
9:54 AM 63.0 °F 53.1 °F 70% 30.19 in 10.0 mi East 6.9 mph - N/A   Partly Cloudy
10:54 AM 68.0 °F 48.0 °F 49% 30.18 in 10.0 mi East 10.4 mph - N/A   Partly Cloudy
11:54 AM 70.0 °F 45.0 °F 41% 30.17 in 10.0 mi East 6.9 mph - N/A   Partly Cloudy
12:54 PM 72.0 °F 43.0 °F 35% 30.15 in 10.0 mi Variable 4.6 mph - N/A   Partly Cloudy
1:54 PM 73.9 °F 43.0 °F 33% 30.13 in 10.0 mi ENE 4.6 mph - N/A   Partly Cloudy
2:54 PM 75.0 °F 44.1 °F 33% 30.10 in 10.0 mi ENE 8.1 mph - N/A   Partly Cloudy
3:54 PM 73.9 °F 42.1 °F 32% 30.08 in 10.0 mi SSE 3.5 mph - N/A   Partly Cloudy
4:54 PM 73.0 °F 43.0 °F 34% 30.06 in 10.0 mi South 6.9 mph - N/A   Scattered Clouds
5:54 PM 70.0 °F 45.0 °F 41% 30.06 in 10.0 mi SE 8.1 mph - N/A   Mostly Cloudy
6:54 PM 63.0 °F 46.0 °F 54% 30.06 in 10.0 mi ESE 9.2 mph - N/A   Mostly Cloudy
7:54 PM 63.0 °F 51.1 °F 65% 30.06 in 10.0 mi SE 9.2 mph - N/A   Mostly Cloudy
8:54 PM 61.0 °F 53.1 °F 75% 30.05 in 10.0 mi SE 9.2 mph - N/A   Mostly Cloudy
9:54 PM 60.1 °F 54.0 °F 80% 30.05 in 10.0 mi SE 8.1 mph - N/A   Mostly Cloudy
10:54 PM 59.0 °F 55.0 °F 87% 30.04 in 10.0 mi SSE 6.9 mph - N/A   Scattered Clouds
11:54 PM 57.0 °F 55.0 °F 93% 30.03 in 10.0 mi SE 3.5 mph - N/A   Scattered Clouds